Погода в Охе

Погода в Охе : погода сейчас, прогноз погоды и архив. Всё, что Вы хотите узнать о погоде в Охе!

Хотите узнать прогноз погоды в Охе? Тогда Вам сюда: Погода в Охе

Поиск расширенной информации на нашем сайте:

Другие новости

Новости СМИ2

Главная страница сайта

Новости сайта

03.07.2017

Напоминаем, что на нашем специализированном сайте Метеоцентр.Азия вы можете получить высокодетализированные автоматические прогнозы погоды по пунктам России, СНГ и мира в авиационном формате (включающие направление и скорость ветра, видимость, явления погоды, количество и форму облачности, нижнюю и верхнюю границу облачности).


Погода в Охе - сегодня

Время (UTC), дата Ветер
(°,м/с) 
Видим.   Явления Облачность Т
(°С)
Тd
(°С)
f(%) Тe
(°С)
Pmin
(гПа)
dP
(гПа)
Po
(мм)
O2
(г/м3)
Тmin Tmax R s Состояние
почвы
09 11.04.18 060 (СВ) 2-3{05}  20000 м    4/3 200 м верхняя 
[St|Ci fib]
-6.4 -9.1 81 -8  1016.1  0.4  758  314    -0.4       
21 11.04.18 010 (С) 3-4{05}  2000 м  дымка  10/10 100 м 
[St]
-10.1 -11 93 -13  1015  -0.2  758  318  -10.7      74  неравномерный
сухой снег
100% 
09 12.04.18 310 (СЗ) 5-8{11}  20000 м    6/6 540 м 
[Sc]
-6.3 -8.5 84 -10  1015  0.3  758  313    -3.6       
21 12.04.18 300 (СЗ) 2-3{07}  20000 м    4/4 300 м 
[St]
-12.4 -13.7 90 -14  1016.3  0.5  758  321  -13.4      73  неравномерный
сухой снег
100% 
09 13.04.18 230 (ЮЗ) 2-3{09}  20000 м    9/6 400 м верхняя 
[Sc|Ci sp]
-1.6 -8 62 -3  1012.3  -0.4  756  307    +2.1       
21 13.04.18 330 (СЗ) 4-6{06}  20000 м    10/10 100 м 
[St]
-7.9 -8.5 95 -12  1012.8  0.4  756  315  -8.6      72  неравномерный
сухой снег
100% 
00 14.04.18 340 (С) 3-5{07}  20000 м  в посл. час ливневой снег  10/10 360 м кучево-дожд. 
[Cb cap]
-5.8 -9.2 77 -8  1013.5  0.6  756  312           
09 14.04.18 310 (СЗ) 2-4{06}  20000 м  в посл. час ливневой снег  8/8 330 м кучево-дожд. 
[Cb cap]
-6.1 -8.2 85 -8  1015.7  0.5  758  313    -2.6  0.2     
12 14.04.18 300 (СЗ) 1-1{04}  20000 м  {ливн. осадки}  8/8 420 м кучево-дожд. 
[Cb cap]
-8 -9.1 92 -8  1015.6  -0.2  758  316           
21 14.04.18 тихо ()   0500 м  переохл. туман  3/0 верхняя 
[Ci fib]
-16.3 -17.8 88 -16  1014.6  -0.5  757  326  -19.1      71  неравномерный
сухой снег
100% 
03 15.04.18 140 (ЮВ) 4-5{06}  20000 м    ясно 
-1.9 -9.9 54 -5  1012  -1.6  755  307           
06 15.04.18 150 (ЮВ) 5-6{06}  20000 м    ясно 
-1.8 -8.7 59 -5  1010.2  -1.8  754  307           
15 15.04.18 150 (ЮВ) 3-4{05}  20000 м    ясно 
-10.5 -11.5 92 -14  1008.2  -1  752  316           
18 15.04.18 150 (ЮВ) 3-3{04}  20000 м    ясно 
-12.7 -14 90 -16  1006.3  -1.9  751  319           
21 15.04.18 150 (ЮВ) 1-1{03}  2000 м  в посл. час туман  4/3 100 м верхняя 
[St|Ci fib]
-12.6 -13.9 90 -13  1005.4  -0.8  750  318  -13.8      71  неравномерный
сухой снег
100% 
09 16.04.18 150 (ЮВ) 4-6{07}  20000 м    8/0 верхняя 
[Ci sp]
-2.4 -4.7 84 -5  1001.7  0.2  748  304    +0.5       
09 17.04.18 130 (ЮВ) 3-3{10}  20000 м    8/0 средняя 
[Ac trans]
+5.9 -3 53 +5  1000.3  -0.2  747  295    +10.2       
21 17.04.18 280 (З) 3-5{07}  20000 м    9/0 средняя 
[Ac trans]
-1.6 -4 84 -4  1004.7  1.9  750  304  -1.9      64  неравномерный
мокрый или
старый снег
100% 
09 18.04.18 290 (З) 3-4{09}  20000 м    3/0 верхняя 
[Ci fib]
+1.2 -4.8 64 1008.6  1.1  753  303    +5.2       
15 18.04.18 260 (З) 3-4{04}  20000 м    ясно 
-3 -7.3 72 -5  1010.3  0.3  754  308           
18 18.04.18 260 (З) 2-3{04}  20000 м    ясно 
-4 -9 68 -5  1010.6  0.2  754  309           
21 18.04.18 260 (З) 3-4{05}  20000 м    ясно 
-1.3 -9.3 54 -3  1011  0.5  755  306  -4      61  неравномерный
мокрый или
старый снег
100% 
03 19.04.18 270 (З) 4-7{08}  20000 м    ясно 
+7 -10.3 28 +6  1011  755  297           
06 19.04.18 280 (З) 3-5{09}  20000 м    ясно 
+8 -12.7 22 +7  1009.9  -1  754  296           
09 19.04.18 220 (ЮЗ) 2-2{05}  20000 м    6/0 верхняя 
[Ci fib]
+6.9 -11.4 26 +7  1009.3  -0.6  753  297    +8.5       
Время (UTC), дата Ветер
(°,м/с) 
Видим.   Явления Облачность Т
(°С)
Тd
(°С)
f(%) Тe
(°С)
Pmin
(гПа)
dP
(гПа)
Po
(мм)
O2
(г/м3)
Тmin Tmax R s Состояние
почвы

Для получения пояснительной информации подведите курсор к названию столбца.

ПОГОДА в Охе - архив

Всё, что Вы хотите узнать о погоде в Охе - удобно и подробно!

Выберите нужную дату (начиная с 1 января 2015* года) и нажмите кнопку "Найти".
Будут отображены архивные сводки погоды по пункту Оха, начиная с указанной даты.


Отображать данные в формате CSV (для использования в таблицах Excel)


Внимание! Наш архив погоды предназначен исключительно для личного некоммерческого использования в познавательных целях. Если Вам необходимы официальные справки о состоянии погоды (для производственных, юридических, коммерческих и т.п. целей), обращайтесь в органы Росгидромета.

*Примечание: данная дата относится к архиву по метеостанциям СССР (Россия, СНГ, Балтия).
Архив по метеостанциям Зарубежной Европы и Азии (кроме Китая) хранится 10 дней, по другим регионам земного шара (Китай, Африка, Америка, Австралия, Океания) - 1 день.

Оха - район местоположения метеостанции


Название, широта, долгота, высота метеостанции:
Оха 53.6°ш. 142.9°д. 8 м над ур. моря [Российская Федерация]

Дополнительная информация

В oтличие oт бoльшинства пoгoдных сайтoв мы публикуем пoдрoбную метеoинфoрмацию в детальнoм прoфессиoнальнoм фoрмате.

Характеристики температуры и влажнoсти вoздуха измеряются на высoте 2 м в тени вдали oт зданий и деревьев.
Скoрoсть ветра измеряется на высoте 10 м (на урoвне рoста челoвека скoрoсть ветра ниже в 1.5-2 раза). Если метеoстанция нахoдится в гoрoде или в лесу, тo скoрoсть ветра занижена на 2-4 м/с пo сравнению с oткрытым местoм. Скoрoсть ветра над акватoриями крупных рек и oзёр, а также на вершинах хoлмoв на 2-5 м/с выше, чем в oбычных услoвиях.
Атмoсфернoе давление в разных тoчках местнoсти мoжет значительнo oтличаться oт давления на метеoстанции, в зависимoсти oт услoвий рельефа (при пoдъёме на 10 м давление пoнижается примернo на 1 мм рт.ст.).